Airfield :
LOGIN :

Register | Disclaimer

   EN    FR    IT 

 










Legend :    VFR   Marginal VFR   IFR   Intensive IFR   Very Intensive IFR
Visi :
Ceiling :
>= 8 km
>= 3000ft
5 to 8 km
1000 to 3000 ft
1500m to 5 km
500 to 1000 ft
800 to 1500m
200 to 500 ft
< 800m
< 200 ft
Symbols :   Thunderstorms  Fog  Heavy snow  Heavy precipitations  Wind > 20 kt
SIGMETs :     Misc.  Thunderstorms  Icing  Turbulence  Mountain Waves  Volcanic Ashes







- Airport Elevation : 120 ft
- IATA code : MME
- Download approach charts


EGNV - Durham Tees valley

CURRENT METAR :
  • 151520Z 32015KT 9999 FEW012 FEW020CB 04/01 Q1005

EXPIRED METARs :
  • 151450Z 33019KT 9999 6000NW VCSH FEW008 SCT014CB 04/02 Q1004
  • 151420Z 33012KT 9999 FEW015 04/02 Q1003
  • 151350Z 34014KT 9999 VCSH FEW020CB 05/02 Q1003
  • 151320Z 36012KT 9999 5000S VCSH SCT015CB 05/02 Q1002
  • 151250Z 31011KT 9999 VCSH FEW012 SCT018CB 04/02 Q1002

TAF TAF EGNV
Valid from the 15 at 15:00 until the 15 at 22:00 UTC


151357Z 1515/1522 32009KT 9999 SCT025
TEMPO 1515/1518 33018G28KT 7000 SHRA BKN012
ATIS : +44 9012 018 111
No reported NOTAMs for that airfield.



MET'MAP, your aeronautical weather chart ! - Copyright ORBIFLY December 2007 - Disclaimer

ORBIFLY MET'MAP TEAM :

Programming & Development : Alexandra Zaïnal
Concept & Development : Baudouin d'Aumeries
Co-Development & Prog : Marc-Olivier Méhu
Technical & hardware support : Manuel Goepfert

Contact : metmap@orbifly.com




SOURCES & CREDITS :

   NOAA